| time (UTC) | temp F | wind direction | speed MPH | gust MPH | rain 1hr in | rain 24hr in | rain mn in | humidity % | barometer mb |
| 20260510175204 | 58 | 353 | 5.0 | 7.0 | 0.00 | 0.02 | 0.02 | 39 | 1017.2 |
| 20260510174701 | 59 | 120 | 2.0 | 6.0 | 0.00 | 0.02 | 0.02 | 39 | 1017.3 |
| 20260510174159 | 59 | 69 | 3.0 | 5.0 | 0.00 | 0.02 | 0.02 | 43 | 1017.2 |
| 20260510173654 | 59 | 340 | 0.0 | 7.0 | 0.00 | 0.02 | 0.02 | 35 | 1017.2 |
| 20260510173151 | 59 | 213 | 2.0 | 8.0 | 0.00 | 0.02 | 0.02 | 36 | 1017.3 |
| 20260510172646 | 58 | 350 | 3.0 | 9.0 | 0.00 | 0.02 | 0.02 | 40 | 1017.4 |
| 20260510172143 | 59 | 201 | 2.0 | 7.0 | 0.00 | 0.02 | 0.02 | 38 | 1017.3 |
| 20260510171639 | 59 | 357 | 3.0 | 11.0 | 0.00 | 0.02 | 0.02 | 36 | 1017.4 |
| 20260510171137 | 58 | 56 | 5.0 | 11.0 | 0.00 | 0.02 | 0.02 | 36 | 1017.4 |
| 20260510170633 | 58 | 348 | 3.0 | 8.0 | 0.00 | 0.02 | 0.02 | 44 | 1017.5 |
| 20260510170130 | 59 | 333 | 3.0 | 7.0 | 0.00 | 0.02 | 0.02 | 39 | 1017.3 |
| 20260510165625 | 58 | 15 | 3.0 | 11.0 | 0.00 | 0.02 | 0.02 | 43 | 1017.2 |
| 20260510165121 | 59 | 246 | 1.0 | 10.0 | 0.00 | 0.02 | 0.02 | 32 | 1017.1 |
| 20260510164620 | 58 | 2 | 2.0 | 7.0 | 0.00 | 0.02 | 0.02 | 39 | 1017.0 |
| 20260510164116 | 59 | 206 | 3.0 | 9.0 | 0.00 | 0.02 | 0.02 | 31 | 1017.0 |
| 20260510163611 | 59 | 225 | 5.0 | 10.0 | 0.00 | 0.02 | 0.02 | 35 | 1017.0 |
| 20260510163108 | 58 | 237 | 3.0 | 9.0 | 0.00 | 0.02 | 0.02 | 35 | 1017.1 |
| 20260510162608 | 58 | 204 | 3.0 | 11.0 | 0.00 | 0.02 | 0.02 | 37 | 1017.1 |
| 20260510162104 | 59 | 203 | 2.0 | 11.0 | 0.00 | 0.02 | 0.02 | 35 | 1017.0 |
| 20260510161600 | 59 | 324 | 1.0 | 5.0 | 0.00 | 0.02 | 0.02 | 46 | 1017.0 |
| 20260510161058 | 58 | 5 | 5.0 | 7.0 | 0.00 | 0.02 | 0.02 | 45 | 1016.8 |
| 20260510160555 | 57 | 351 | 3.0 | 5.0 | 0.00 | 0.02 | 0.02 | 42 | 1016.7 |
| 20260510160054 | 56 | 16 | 2.0 | 4.0 | 0.00 | 0.02 | 0.02 | 52 | 1016.7 |
| 20260510155551 | 57 | 61 | 3.0 | 9.0 | 0.00 | 0.02 | 0.02 | 49 | 1016.8 |
| 20260510155047 | 56 | 49 | 4.0 | 9.0 | 0.00 | 0.02 | 0.02 | 47 | 1016.7 |
| 20260510154542 | 57 | 75 | 2.0 | 9.0 | 0.00 | 0.02 | 0.02 | 47 | 1016.5 |
| 20260510154038 | 57 | 17 | 3.0 | 5.0 | 0.00 | 0.02 | 0.02 | 42 | 1016.6 |
| 20260510153533 | 57 | 37 | 3.0 | 6.0 | 0.00 | 0.02 | 0.02 | 48 | 1016.5 |
| 20260510153031 | 56 | 283 | 3.0 | 5.0 | 0.00 | 0.02 | 0.02 | 46 | 1016.6 |
| 20260510152527 | 55 | 42 | 5.0 | 7.0 | 0.00 | 0.02 | 0.02 | 52 | 1016.6 |
| 20260510152024 | 55 | 67 | 2.0 | 6.0 | 0.00 | 0.02 | 0.02 | 47 | 1016.7 |
| 20260510151520 | 55 | 36 | 2.0 | 9.0 | 0.00 | 0.02 | 0.02 | 46 | 1016.6 |
| 20260510151018 | 55 | 358 | 4.0 | 10.0 | 0.00 | 0.02 | 0.02 | 51 | 1016.6 |
| 20260510150513 | 55 | 65 | 6.0 | 7.0 | 0.00 | 0.02 | 0.02 | 49 | 1016.4 |
| 20260510150009 | 56 | 42 | 1.0 | 6.0 | 0.00 | 0.02 | 0.02 | 47 | 1016.3 |
| 20260510145506 | 55 | 37 | 2.0 | 5.0 | 0.00 | 0.02 | 0.02 | 53 | 1016.3 |
| 20260510145002 | 54 | 64 | 5.0 | 9.0 | 0.00 | 0.02 | 0.02 | 48 | 1016.5 |
| 20260510144459 | 55 | 91 | 3.0 | 7.0 | 0.00 | 0.02 | 0.02 | 50 | 1016.4 |
| 20260510143955 | 55 | 45 | 3.0 | 5.0 | 0.00 | 0.02 | 0.02 | 52 | 1016.3 |
| 20260510143451 | 55 | 98 | 2.0 | 6.0 | 0.00 | 0.02 | 0.02 | 47 | 1016.3 |
| 20260510142947 | 55 | 355 | 4.0 | 11.0 | 0.00 | 0.02 | 0.02 | 48 | 1016.3 |
| 20260510142444 | 54 | 71 | 7.0 | 7.0 | 0.00 | 0.02 | 0.02 | 50 | 1016.0 |
| 20260510141941 | 54 | 18 | 4.0 | 7.0 | 0.00 | 0.02 | 0.02 | 46 | 1016.3 |
| 20260510141438 | 54 | 64 | 6.0 | 9.0 | 0.00 | 0.02 | 0.02 | 50 | 1016.3 |
| 20260510140935 | 53 | 23 | 2.0 | 10.0 | 0.00 | 0.02 | 0.02 | 48 | 1016.3 |
| 20260510140431 | 53 | 97 | 3.0 | 9.0 | 0.00 | 0.02 | 0.02 | 49 | 1016.4 |
| 20260510135930 | 53 | 346 | 5.0 | 5.0 | 0.00 | 0.02 | 0.02 | 51 | 1016.4 |
| 20260510135426 | 53 | 51 | 4.0 | 6.0 | 0.00 | 0.02 | 0.02 | 51 | 1016.3 |
| 20260510134924 | 52 | 72 | 3.0 | 7.0 | 0.00 | 0.02 | 0.02 | 52 | 1016.4 |
| 20260510134420 | 51 | 14 | 3.0 | 5.0 | 0.00 | 0.02 | 0.02 | 51 | 1016.3 |
| 20260510133916 | 51 | 74 | 7.0 | 9.0 | 0.00 | 0.02 | 0.02 | 52 | 1016.3 |
| 20260510133413 | 51 | 4 | 4.0 | 6.0 | 0.00 | 0.02 | 0.02 | 57 | 1016.2 |
| 20260510132908 | 51 | 24 | 3.0 | 7.0 | 0.00 | 0.02 | 0.02 | 58 | 1016.1 |
| 20260510132407 | 50 | 24 | 4.0 | 10.0 | 0.00 | 0.02 | 0.02 | 57 | 1016.1 |
| 20260510131903 | 50 | 60 | 4.0 | 8.0 | 0.00 | 0.02 | 0.02 | 57 | 1015.9 |
| 20260510131401 | 51 | 72 | 4.0 | 6.0 | 0.00 | 0.02 | 0.02 | 59 | 1015.9 |
| 20260510130857 | 51 | 43 | 0.0 | 9.0 | 0.00 | 0.02 | 0.02 | 63 | 1015.9 |
| 20260510130354 | 50 | 356 | 2.0 | 9.0 | 0.00 | 0.02 | 0.02 | 63 | 1015.9 |
| 20260510125851 | 50 | 86 | 5.0 | 9.0 | 0.00 | 0.02 | 0.02 | 63 | 1015.7 |
| 20260510125347 | 50 | 355 | 2.0 | 7.0 | 0.00 | 0.02 | 0.02 | 66 | 1015.7 |
| 20260510124844 | 50 | 296 | 4.0 | 8.0 | 0.00 | 0.02 | 0.02 | 67 | 1015.4 |
| 20260510124340 | 50 | 15 | 2.0 | 9.0 | 0.00 | 0.02 | 0.02 | 66 | 1015.4 |
| 20260510123836 | 50 | 47 | 5.0 | 9.0 | 0.00 | 0.02 | 0.02 | 67 | 1015.4 |
| 20260510123332 | 49 | 348 | 4.0 | 10.0 | 0.00 | 0.02 | 0.02 | 68 | 1015.5 |
| 20260510122829 | 49 | 60 | 3.0 | 6.0 | 0.00 | 0.02 | 0.02 | 67 | 1015.3 |
| 20260510122324 | 49 | 51 | 3.0 | 5.0 | 0.00 | 0.02 | 0.02 | 68 | 1015.1 |
| 20260510121821 | 50 | 13 | 3.0 | 6.0 | 0.00 | 0.02 | 0.02 | 67 | 1015.0 |
| 20260510121319 | 49 | 78 | 1.0 | 7.0 | 0.00 | 0.02 | 0.02 | 68 | 1015.1 |
| 20260510120816 | 49 | 359 | 3.0 | 8.0 | 0.00 | 0.02 | 0.02 | 66 | 1014.9 |
| 20260510120312 | 49 | 337 | 3.0 | 6.0 | 0.00 | 0.02 | 0.02 | 69 | 1015.1 |
| 20260510115808 | 49 | 78 | 2.0 | 3.0 | 0.00 | 0.02 | 0.02 | 72 | 1014.9 |
| 20260510115307 | 48 | 357 | 6.0 | 9.0 | 0.00 | 0.02 | 0.02 | 70 | 1014.8 |
| 20260510114801 | 48 | 56 | 4.0 | 7.0 | 0.00 | 0.02 | 0.02 | 70 | 1014.7 |
| 20260510114259 | 48 | 349 | 4.0 | 8.0 | 0.00 | 0.02 | 0.02 | 69 | 1014.7 |
| 20260510113753 | 48 | 67 | 4.0 | 9.0 | 0.00 | 0.02 | 0.02 | 70 | 1014.2 |
| 20260510113251 | 48 | 335 | 5.0 | 12.0 | 0.00 | 0.02 | 0.02 | 70 | 1014.2 |
| 20260510112747 | 48 | 33 | 3.0 | 5.0 | 0.00 | 0.02 | 0.02 | 73 | 1014.0 |
| 20260510112244 | 48 | 53 | 3.0 | 5.0 | 0.00 | 0.02 | 0.02 | 76 | 1014.2 |
| 20260510111740 | 48 | 354 | 7.0 | 7.0 | 0.00 | 0.02 | 0.02 | 76 | 1014.0 |
| 20260510111237 | 48 | 30 | 3.0 | 4.0 | 0.00 | 0.02 | 0.02 | 76 | 1014.0 |
| 20260510110736 | 48 | 3 | 5.0 | 5.0 | 0.00 | 0.02 | 0.02 | 76 | 1013.9 |
| 20260510110235 | 48 | 36 | 3.0 | 7.0 | 0.00 | 0.02 | 0.02 | 76 | 1013.6 |
| 20260510105734 | 48 | 260 | 0.0 | 7.0 | 0.00 | 0.02 | 0.02 | 76 | 1013.3 |
| 20260510105229 | 48 | 60 | 4.0 | 6.0 | 0.00 | 0.02 | 0.02 | 78 | 1013.3 |
| 20260510104726 | 48 | 19 | 2.0 | 5.0 | 0.00 | 0.02 | 0.02 | 78 | 1013.2 |
| 20260510104224 | 48 | 39 | 0.0 | 3.0 | 0.00 | 0.02 | 0.02 | 78 | 1013.0 |
| 20260510103720 | 47 | 70 | 3.0 | 9.0 | 0.00 | 0.02 | 0.02 | 78 | 1012.7 |
| 20260510103217 | 48 | 97 | 1.0 | 7.0 | 0.00 | 0.02 | 0.02 | 77 | 1012.9 |
| 20260510102717 | 48 | 53 | 4.0 | 7.0 | 0.00 | 0.02 | 0.02 | 77 | 1012.8 |
| 20260510102212 | 47 | 130 | 2.0 | 5.0 | 0.00 | 0.02 | 0.02 | 78 | 1012.5 |
| 20260510101710 | 47 | 72 | 1.0 | 6.0 | 0.00 | 0.02 | 0.02 | 79 | 1012.4 |
| 20260510101209 | 48 | 55 | 5.0 | 5.0 | 0.00 | 0.02 | 0.02 | 79 | 1012.3 |
| 20260510100704 | 47 | 348 | 2.0 | 5.0 | 0.00 | 0.02 | 0.02 | 79 | 1012.3 |
| 20260510100202 | 47 | 46 | 2.0 | 4.0 | 0.00 | 0.02 | 0.02 | 80 | 1012.3 |
| 20260510095657 | 48 | 327 | 3.0 | 4.0 | 0.00 | 0.02 | 0.02 | 81 | 1012.2 |
| 20260510095153 | 48 | 32 | 2.0 | 3.0 | 0.00 | 0.02 | 0.02 | 82 | 1012.2 |
| 20260510094651 | 48 | 5 | 1.0 | 2.0 | 0.00 | 0.02 | 0.02 | 83 | 1012.2 |
| 20260510094148 | 48 | 359 | 1.0 | 2.0 | 0.00 | 0.02 | 0.02 | 83 | 1012.0 |
| 20260510093643 | 48 | 48 | 3.0 | 3.0 | 0.00 | 0.02 | 0.02 | 83 | 1012.1 |
| 20260510093141 | 48 | 347 | 1.0 | 3.0 | 0.00 | 0.02 | 0.02 | 84 | 1012.1 |
| 20260510092637 | 47 | 17 | 1.0 | 3.0 | 0.00 | 0.02 | 0.02 | 86 | 1011.8 |
| 20260510092133 | 47 | 25 | 1.0 | 3.0 | 0.00 | 0.02 | 0.02 | 88 | 1011.8 |
| 20260510091629 | 47 | 20 | 2.0 | 2.0 | 0.00 | 0.02 | 0.02 | 90 | 1011.7 |
| 20260510091125 | 46 | 8 | 2.0 | 4.0 | 0.00 | 0.02 | 0.02 | 91 | 1011.6 |
| 20260510090622 | 46 | 8 | 1.0 | 2.0 | 0.00 | 0.02 | 0.02 | 91 | 1011.5 |
| 20260510090119 | 46 | 15 | 2.0 | 3.0 | 0.00 | 0.02 | 0.02 | 91 | 1011.4 |
| 20260510085614 | 46 | 49 | 0.0 | 2.0 | 0.00 | 0.02 | 0.02 | 91 | 1011.3 |
| 20260510085109 | 46 | 50 | 0.0 | 1.0 | 0.00 | 0.02 | 0.02 | 91 | 1011.3 |
| 20260510084606 | 46 | 116 | 0.0 | 1.0 | 0.00 | 0.02 | 0.02 | 91 | 1011.2 |
| 20260510084103 | 46 | 189 | 1.0 | 2.0 | 0.00 | 0.02 | 0.02 | 91 | 1011.2 |
| 20260510083559 | 46 | 44 | 0.0 | 1.0 | 0.00 | 0.02 | 0.02 | 90 | 1011.0 |
| 20260510083055 | 46 | 240 | 0.0 | 1.0 | 0.00 | 0.02 | 0.02 | 90 | 1011.2 |
| 20260510082552 | 46 | 166 | 0.0 | 1.0 | 0.00 | 0.02 | 0.02 | 90 | 1010.9 |
| 20260510082048 | 47 | 129 | 0.0 | 2.0 | 0.00 | 0.02 | 0.02 | 90 | 1010.7 |
| 20260510081543 | 47 | 170 | 0.0 | 2.0 | 0.00 | 0.02 | 0.02 | 90 | 1010.9 |
| 20260510081039 | 47 | 131 | 0.0 | 1.0 | 0.00 | 0.02 | 0.02 | 89 | 1010.7 |
| 20260510080538 | 47 | 157 | 0.0 | 0.0 | 0.00 | 0.02 | 0.02 | 88 | 1010.7 |
| 20260510080035 | 47 | 157 | 0.0 | 2.0 | 0.00 | 0.02 | 0.02 | 88 | 1010.7 |
| 20260510075532 | 46 | 178 | 0.0 | 2.0 | 0.00 | 0.02 | 0.02 | 86 | 1010.5 |
| 20260510075029 | 46 | 135 | 0.0 | 0.0 | 0.00 | 0.02 | 0.02 | 85 | 1010.3 |
| 20260510074527 | 47 | 212 | 0.0 | 1.0 | 0.00 | 0.02 | 0.02 | 85 | 1010.2 |
| 20260510074022 | 47 | 326 | 0.0 | 0.0 | 0.00 | 0.02 | 0.02 | 83 | 1010.2 |
| 20260510073518 | 47 | 326 | 0.0 | 0.0 | 0.00 | 0.02 | 0.02 | 82 | 1009.9 |
| 20260510073015 | 47 | 104 | 0.0 | 0.0 | 0.00 | 0.02 | 0.02 | 81 | 1010.0 |
| 20260510072512 | 48 | 126 | 0.0 | 1.0 | 0.00 | 0.02 | 0.02 | 81 | 1009.9 |
| 20260510072007 | 48 | 288 | 0.0 | 1.0 | 0.00 | 0.02 | 0.02 | 81 | 1009.8 |
| 20260510071504 | 48 | 55 | 0.0 | 2.0 | 0.00 | 0.02 | 0.02 | 80 | 1009.8 |
| 20260510071002 | 48 | 89 | 0.0 | 3.0 | 0.00 | 0.02 | 0.02 | 80 | 1009.6 |
| 20260510070459 | 49 | 127 | 0.0 | 2.0 | 0.00 | 0.02 | 0.02 | 79 | 1009.7 |
| 20260510065954 | 49 | 6 | 0.0 | 3.0 | 0.00 | 0.02 | 0.02 | 78 | 1009.5 |
| 20260510065452 | 49 | 333 | 1.0 | 2.0 | 0.00 | 0.02 | 0.02 | 78 | 1009.8 |
| 20260510064948 | 49 | 237 | 0.0 | 2.0 | 0.00 | 0.02 | 0.02 | 77 | 1009.6 |
| 20260510064445 | 50 | 55 | 2.0 | 3.0 | 0.00 | 0.02 | 0.02 | 75 | 1009.6 |
| 20260510063942 | 51 | 66 | 0.0 | 4.0 | 0.00 | 0.02 | 0.02 | 73 | 1009.6 |
| 20260510063438 | 51 | 1 | 2.0 | 5.0 | 0.00 | 0.02 | 0.02 | 73 | 1009.6 |
| 20260510062936 | 50 | 7 | 2.0 | 3.0 | 0.00 | 0.02 | 0.02 | 74 | 1009.5 |
| 20260510062430 | 51 | 346 | 1.0 | 6.0 | 0.00 | 0.02 | 0.02 | 74 | 1009.3 |
| 20260510061926 | 51 | 89 | 0.0 | 3.0 | 0.00 | 0.02 | 0.02 | 72 | 1009.3 |
| 20260510061423 | 51 | 38 | 2.0 | 5.0 | 0.00 | 0.02 | 0.02 | 72 | 1009.5 |
| 20260510060919 | 51 | 129 | 1.0 | 4.0 | 0.00 | 0.02 | 0.02 | 72 | 1009.3 |
| 20260510060416 | 52 | 88 | 4.0 | 7.0 | 0.00 | 0.02 | 0.02 | 72 | 1009.4 |
| 20260510055912 | 52 | 79 | 3.0 | 5.0 | 0.00 | 0.02 | 0.02 | 72 | 1009.2 |
| 20260510055408 | 52 | 50 | 6.0 | 8.0 | 0.00 | 0.02 | 0.02 | 73 | 1009.1 |
| 20260510054906 | 52 | 84 | 4.0 | 9.0 | 0.00 | 0.02 | 0.02 | 74 | 1008.8 |
| 20260510054402 | 52 | 55 | 3.0 | 6.0 | 0.00 | 0.02 | 0.02 | 74 | 1008.9 |
| 20260510053857 | 52 | 30 | 5.0 | 13.0 | 0.00 | 0.02 | 0.02 | 74 | 1009.0 |
| 20260510053353 | 53 | 2 | 4.0 | 9.0 | 0.00 | 0.02 | 0.02 | 74 | 1008.9 |
| 20260510052849 | 53 | 50 | 7.0 | 13.0 | 0.00 | 0.02 | 0.02 | 75 | 1008.8 |
| 20260510052345 | 53 | 350 | 4.0 | 5.0 | 0.00 | 0.02 | 0.02 | 79 | 1008.4 |
| 20260510051841 | 55 | 2 | 4.0 | 13.0 | 0.00 | 0.02 | 0.02 | 82 | 1008.4 |
| 20260510051338 | 57 | 62 | 3.0 | 7.0 | 0.00 | 0.02 | 0.02 | 84 | 1008.0 |
| 20260510050835 | 58 | 27 | 4.0 | 6.0 | 0.00 | 0.02 | 0.02 | 83 | 1007.7 |
| 20260510050331 | 58 | 241 | 1.0 | 2.0 | 0.00 | 0.02 | 0.02 | 81 | 1007.4 |
| 20260510045829 | 58 | 224 | 0.0 | 3.0 | 0.00 | 0.02 | 0.02 | 80 | 1007.3 |
| 20260510045325 | 59 | 226 | 2.0 | 3.0 | 0.00 | 0.02 | 0.02 | 79 | 1007.3 |
| 20260510044823 | 59 | 235 | 4.0 | 7.0 | 0.00 | 0.02 | 0.02 | 78 | 1007.3 |
| 20260510044319 | 59 | 232 | 4.0 | 10.0 | 0.00 | 0.02 | 0.02 | 78 | 1007.2 |
| 20260510043816 | 58 | 236 | 2.0 | 8.0 | 0.00 | 0.02 | 0.02 | 82 | 1007.0 |
| 20260510043312 | 57 | 236 | 2.0 | 3.0 | 0.02 | 0.02 | 0.02 | 86 | 1006.6 |
| 20260510042810 | 58 | 201 | 2.0 | 4.0 | 0.09 | 0.02 | 0.02 | 83 | 1006.4 |
| 20260510042307 | 59 | 35 | 4.0 | 8.0 | 0.05 | 0.01 | 0.01 | 82 | 1007.0 |
| 20260510041801 | 59 | 346 | 3.0 | 5.0 | 0.00 | 0.00 | 0.00 | 82 | 1006.5 |
| 20260510041300 | 57 | 130 | 1.0 | 4.0 | 0.00 | 0.00 | 0.00 | 84 | 1006.4 |
| 20260510040757 | 58 | 159 | 0.0 | 3.0 | 0.00 | 0.00 | 0.00 | 83 | 1006.2 |
| 20260510040253 | 58 | 89 | 0.0 | 2.0 | 0.00 | 0.00 | 0.00 | 82 | 1006.2 |
| 20260510035749 | 58 | 295 | 0.0 | 2.0 | 0.00 | 0.30 | 0.30 | 82 | 1006.0 |
| 20260510035245 | 58 | 230 | 1.0 | 5.0 | 0.00 | 0.30 | 0.30 | 83 | 1006.1 |
| 20260510034740 | 57 | 142 | 0.0 | 3.0 | 0.00 | 0.30 | 0.30 | 86 | 1005.9 |
| 20260510034239 | 57 | 147 | 0.0 | 1.0 | 0.00 | 0.30 | 0.30 | 86 | 1005.9 |
| 20260510033734 | 57 | 166 | 0.0 | 3.0 | 0.00 | 0.30 | 0.30 | 85 | 1005.9 |
| 20260510033232 | 57 | 142 | 1.0 | 3.0 | 0.00 | 0.30 | 0.30 | 85 | 1005.8 |
| 20260510032728 | 57 | 58 | 0.0 | 2.0 | 0.00 | 0.30 | 0.30 | 84 | 1005.8 |
| 20260510032224 | 58 | 89 | 0.0 | 3.0 | 0.00 | 0.30 | 0.30 | 83 | 1005.7 |
| 20260510031719 | 58 | 191 | 0.0 | 1.0 | 0.00 | 0.30 | 0.30 | 82 | 1006.0 |
| 20260510031216 | 59 | 234 | 1.0 | 4.0 | 0.00 | 0.30 | 0.30 | 82 | 1005.9 |
| 20260510030715 | 58 | 183 | 1.0 | 6.0 | 0.00 | 0.30 | 0.30 | 83 | 1005.9 |
| 20260510030213 | 58 | 318 | 0.0 | 2.0 | 0.00 | 0.30 | 0.30 | 83 | 1005.9 |
| 20260510025710 | 58 | 208 | 2.0 | 4.0 | 0.00 | 0.30 | 0.30 | 82 | 1005.9 |
| 20260510025207 | 58 | 206 | 2.0 | 5.0 | 0.00 | 0.30 | 0.30 | 83 | 1006.0 |
| 20260510024704 | 58 | 218 | 0.0 | 3.0 | 0.00 | 0.30 | 0.30 | 83 | 1006.0 |
| 20260510024201 | 57 | 149 | 0.0 | 5.0 | 0.00 | 0.30 | 0.30 | 85 | 1006.1 |
| 20260510023656 | 57 | 230 | 0.0 | 4.0 | 0.00 | 0.30 | 0.30 | 86 | 1005.9 |
| 20260510023154 | 57 | 332 | 0.0 | 2.0 | 0.00 | 0.30 | 0.30 | 86 | 1005.7 |
| 20260510022649 | 57 | 216 | 2.0 | 3.0 | 0.00 | 0.30 | 0.30 | 86 | 1005.6 |
| 20260510022144 | 57 | 225 | 3.0 | 3.0 | 0.00 | 0.30 | 0.30 | 87 | 1005.8 |
| 20260510021640 | 57 | 187 | 0.0 | 4.0 | 0.00 | 0.30 | 0.30 | 87 | 1005.6 |
| 20260510021137 | 57 | 203 | 1.0 | 4.0 | 0.00 | 0.30 | 0.30 | 87 | 1005.7 |
| 20260510020631 | 57 | 198 | 2.0 | 13.0 | 0.00 | 0.30 | 0.30 | 88 | 1005.8 |
| 20260510020127 | 56 | 179 | 0.0 | 5.0 | 0.00 | 0.30 | 0.30 | 90 | 1005.9 |
| 20260510015623 | 56 | 222 | 2.0 | 3.0 | 0.00 | 0.30 | 0.30 | 92 | 1005.9 |
| 20260510015119 | 55 | 166 | 0.0 | 2.0 | 0.00 | 0.30 | 0.30 | 92 | 1005.3 |
| 20260510014615 | 55 | 117 | 0.0 | 2.0 | 0.00 | 0.30 | 0.30 | 92 | 1005.3 |
| 20260510014113 | 55 | 166 | 1.0 | 1.0 | 0.00 | 0.30 | 0.30 | 92 | 1005.3 |
| 20260510013608 | 55 | 117 | 0.0 | 1.0 | 0.00 | 0.30 | 0.30 | 92 | 1005.1 |
| 20260510013104 | 55 | 205 | 0.0 | 1.0 | 0.00 | 0.30 | 0.30 | 92 | 1005.1 |
| 20260510012603 | 55 | 152 | 0.0 | 2.0 | 0.00 | 0.30 | 0.30 | 92 | 1005.0 |
| 20260510012100 | 55 | 26 | 0.0 | 3.0 | 0.00 | 0.30 | 0.30 | 91 | 1005.2 |
| 20260510011559 | 55 | 138 | 0.0 | 2.0 | 0.00 | 0.30 | 0.30 | 91 | 1005.0 |
| 20260510011056 | 55 | 180 | 0.0 | 2.0 | 0.00 | 0.30 | 0.30 | 91 | 1005.1 |
| 20260510010552 | 55 | 76 | 0.0 | 2.0 | 0.00 | 0.30 | 0.30 | 90 | 1005.2 |
| 20260510010049 | 55 | 159 | 0.0 | 2.0 | 0.00 | 0.30 | 0.30 | 90 | 1005.0 |
| 20260510005550 | 56 | 172 | 1.0 | 2.0 | 0.00 | 0.30 | 0.30 | 90 | 1004.9 |
| 20260510005048 | 56 | 154 | 1.0 | 5.0 | 0.00 | 0.30 | 0.30 | 89 | 1005.1 |
| 20260510004545 | 56 | 130 | 0.0 | 3.0 | 0.00 | 0.30 | 0.30 | 89 | 1005.0 |
| 20260510004043 | 57 | 166 | 0.0 | 5.0 | 0.00 | 0.30 | 0.30 | 88 | 1005.0 |
| 20260510003540 | 57 | 237 | 0.0 | 3.0 | 0.00 | 0.30 | 0.30 | 88 | 1005.0 |
| 20260510003036 | 57 | 170 | 1.0 | 3.0 | 0.00 | 0.30 | 0.30 | 88 | 1004.9 |
| 20260510002531 | 57 | 142 | 0.0 | 2.0 | 0.00 | 0.30 | 0.30 | 88 | 1004.9 |
| 20260510002028 | 57 | 216 | 2.0 | 4.0 | 0.00 | 0.30 | 0.30 | 88 | 1005.0 |
| 20260510001526 | 57 | 198 | 2.0 | 3.0 | 0.00 | 0.30 | 0.30 | 88 | 1004.9 |
| 20260510001024 | 57 | 144 | 0.0 | 5.0 | 0.00 | 0.30 | 0.30 | 88 | 1005.0 |
| 20260510000519 | 58 | 184 | 3.0 | 4.0 | 0.00 | 0.30 | 0.30 | 89 | 1005.0 |
| 20260510000016 | 58 | 208 | 1.0 | 3.0 | 0.00 | 0.30 | 0.30 | 89 | 1004.9 |
| 20260509235513 | 58 | 193 | 1.0 | 4.0 | 0.00 | 0.30 | 0.30 | 90 | 1004.9 |
| 20260509235009 | 58 | 201 | 3.0 | 7.0 | 0.00 | 0.30 | 0.30 | 90 | 1004.9 |
| 20260509234506 | 58 | 224 | 3.0 | 4.0 | 0.00 | 0.30 | 0.30 | 90 | 1004.8 |
| 20260509234004 | 58 | 208 | 2.0 | 4.0 | 0.00 | 0.30 | 0.30 | 90 | 1004.6 |
| 20260509233500 | 58 | 222 | 3.0 | 4.0 | 0.00 | 0.30 | 0.30 | 91 | 1004.7 |
| 20260509232956 | 58 | 243 | 0.0 | 3.0 | 0.00 | 0.30 | 0.30 | 91 | 1004.5 |
| 20260509232454 | 57 | 213 | 2.0 | 4.0 | 0.00 | 0.30 | 0.30 | 92 | 1004.4 |
| 20260509231949 | 57 | 223 | 3.0 | 9.0 | 0.00 | 0.30 | 0.30 | 92 | 1004.6 |
| 20260509231447 | 57 | 231 | 1.0 | 4.0 | 0.00 | 0.30 | 0.30 | 93 | 1004.5 |
| 20260509230945 | 57 | 122 | 3.0 | 5.0 | 0.00 | 0.30 | 0.30 | 93 | 1004.3 |
| 20260509230442 | 57 | 168 | 1.0 | 3.0 | 0.12 | 0.30 | 0.30 | 93 | 1004.4 |
| 20260509225938 | 57 | 213 | 3.0 | 5.0 | 0.14 | 0.29 | 0.29 | 93 | 1004.6 |
| 20260509225434 | 57 | 193 | 4.0 | 10.0 | 0.05 | 0.28 | 0.28 | 93 | 1004.7 |
| 20260509224930 | 57 | 219 | 5.0 | 6.0 | 0.02 | 0.27 | 0.27 | 93 | 1005.1 |
| 20260509224426 | 57 | 192 | 4.0 | 9.0 | 0.02 | 0.27 | 0.27 | 93 | 1004.5 |
| 20260509223923 | 56 | 223 | 7.0 | 11.0 | 0.02 | 0.26 | 0.26 | 93 | 1004.7 |
| 20260509223420 | 57 | 186 | 5.0 | 10.0 | 0.45 | 0.26 | 0.26 | 92 | 1004.7 |
| 20260509222918 | 57 | 228 | 4.0 | 14.0 | 0.85 | 0.25 | 0.25 | 91 | 1004.6 |
| 20260509222412 | 57 | 211 | 7.0 | 17.0 | 1.04 | 0.18 | 0.18 | 86 | 1004.6 |
| 20260509221908 | 59 | 324 | 2.0 | 15.0 | 0.61 | 0.10 | 0.10 | 79 | 1005.0 |
| 20260509221405 | 69 | 2 | 4.0 | 9.0 | 0.00 | 0.00 | 0.00 | 61 | 1003.6 |
| 20260509220900 | 69 | 209 | 3.0 | 10.0 | 0.00 | 0.00 | 0.00 | 55 | 1002.4 |
| 20260509220356 | 69 | 222 | 3.0 | 6.0 | 0.00 | 0.00 | 0.00 | 56 | 1002.1 |
| 20260509215853 | 69 | 307 | 3.0 | 6.0 | 0.00 | 0.00 | 0.00 | 57 | 1002.2 |
| 20260509215349 | 69 | 244 | 0.0 | 5.0 | 0.00 | 0.00 | 0.00 | 55 | 1002.3 |
| 20260509214847 | 70 | 145 | 1.0 | 6.0 | 0.00 | 0.00 | 0.00 | 56 | 1002.2 |
| 20260509214344 | 70 | 41 | 4.0 | 10.0 | 0.00 | 0.00 | 0.00 | 55 | 1002.0 |
| 20260509213841 | 70 | 210 | 5.0 | 10.0 | 0.00 | 0.00 | 0.00 | 55 | 1002.2 |
| 20260509213336 | 70 | 160 | 2.0 | 8.0 | 0.00 | 0.00 | 0.00 | 56 | 1002.0 |
| 20260509212834 | 71 | 213 | 4.0 | 5.0 | 0.00 | 0.00 | 0.00 | 54 | 1002.0 |
| 20260509212331 | 73 | 204 | 2.0 | 13.0 | 0.00 | 0.00 | 0.00 | 53 | 1002.0 |
| 20260509211827 | 72 | 180 | 2.0 | 12.0 | 0.00 | 0.00 | 0.00 | 52 | 1001.9 |
| 20260509211323 | 71 | 254 | 5.0 | 20.0 | 0.00 | 0.00 | 0.00 | 51 | 1002.0 |
| 20260509210820 | 72 | 115 | 4.0 | 22.0 | 0.00 | 0.00 | 0.00 | 52 | 1002.1 |
| 20260509210317 | 72 | 252 | 6.0 | 11.0 | 0.00 | 0.00 | 0.00 | 52 | 1002.0 |
| 20260509205818 | 73 | 174 | 7.0 | 9.0 | 0.00 | 0.00 | 0.00 | 50 | 1001.9 |
| 20260509205312 | 73 | 183 | 4.0 | 7.0 | 0.00 | 0.00 | 0.00 | 52 | 1002.2 |
| 20260509204808 | 72 | 206 | 3.0 | 12.0 | 0.00 | 0.00 | 0.00 | 51 | 1002.2 |
| 20260509204304 | 72 | 265 | 2.0 | 10.0 | 0.00 | 0.00 | 0.00 | 54 | 1002.2 |
| 20260509203801 | 72 | 212 | 5.0 | 14.0 | 0.00 | 0.00 | 0.00 | 52 | 1002.3 |
| 20260509203258 | 72 | 98 | 3.0 | 13.0 | 0.00 | 0.00 | 0.00 | 55 | 1002.6 |
| 20260509202754 | 72 | 164 | 2.0 | 7.0 | 0.00 | 0.00 | 0.00 | 53 | 1002.7 |
| 20260509202250 | 72 | 149 | 5.0 | 14.0 | 0.00 | 0.00 | 0.00 | 54 | 1002.6 |
| 20260509201749 | 72 | 184 | 3.0 | 13.0 | 0.00 | 0.00 | 0.00 | 53 | 1002.7 |
| 20260509201247 | 71 | 257 | 5.0 | 12.0 | 0.00 | 0.00 | 0.00 | 57 | 1002.9 |
| 20260509200743 | 71 | 212 | 7.0 | 12.0 | 0.00 | 0.00 | 0.00 | 53 | 1002.9 |
| 20260509200238 | 72 | 237 | 3.0 | 11.0 | 0.00 | 0.00 | 0.00 | 53 | 1003.1 |
| 20260509195735 | 71 | 223 | 5.0 | 7.0 | 0.00 | 0.00 | 0.00 | 54 | 1003.1 |
| 20260509195230 | 72 | 239 | 5.0 | 12.0 | 0.00 | 0.00 | 0.00 | 55 | 1003.3 |
| 20260509194730 | 72 | 210 | 4.0 | 8.0 | 0.00 | 0.00 | 0.00 | 55 | 1003.2 |
| 20260509194226 | 71 | 111 | 2.0 | 9.0 | 0.00 | 0.00 | 0.00 | 57 | 1003.4 |
| 20260509193724 | 72 | 220 | 2.0 | 8.0 | 0.00 | 0.00 | 0.00 | 52 | 1003.4 |
| 20260509193218 | 72 | 194 | 2.0 | 9.0 | 0.00 | 0.00 | 0.00 | 56 | 1003.5 |
| 20260509192715 | 71 | 223 | 2.0 | 6.0 | 0.00 | 0.00 | 0.00 | 58 | 1003.5 |
| 20260509192209 | 72 | 207 | 3.0 | 7.0 | 0.00 | 0.00 | 0.00 | 54 | 1003.7 |
| 20260509191705 | 71 | 347 | 2.0 | 6.0 | 0.00 | 0.00 | 0.00 | 59 | 1003.7 |
| 20260509191202 | 71 | 78 | 3.0 | 9.0 | 0.00 | 0.00 | 0.00 | 58 | 1003.9 |
| 20260509190658 | 71 | 178 | 2.0 | 10.0 | 0.00 | 0.00 | 0.00 | 59 | 1003.5 |
| 20260509190155 | 70 | 203 | 5.0 | 13.0 | 0.00 | 0.00 | 0.00 | 58 | 1003.7 |
| 20260509185653 | 69 | 214 | 4.0 | 8.0 | 0.00 | 0.00 | 0.00 | 57 | 1003.9 |
| 20260509185148 | 69 | 234 | 3.0 | 11.0 | 0.00 | 0.00 | 0.00 | 56 | 1003.9 |
| 20260509184647 | 69 | 212 | 10.0 | 12.0 | 0.00 | 0.00 | 0.00 | 57 | 1004.0 |
| 20260509184143 | 69 | 210 | 5.0 | 14.0 | 0.00 | 0.00 | 0.00 | 59 | 1004.3 |
| 20260509183640 | 70 | 252 | 3.0 | 11.0 | 0.00 | 0.00 | 0.00 | 57 | 1004.0 |
| 20260509183140 | 70 | 243 | 8.0 | 11.0 | 0.00 | 0.00 | 0.00 | 57 | 1004.2 |
| 20260509182636 | 69 | 348 | 1.0 | 6.0 | 0.00 | 0.00 | 0.00 | 63 | 1004.3 |
| 20260509182133 | 68 | 342 | 3.0 | 9.0 | 0.00 | 0.00 | 0.00 | 62 | 1004.4 |
| 20260509181631 | 68 | 226 | 5.0 | 9.0 | 0.00 | 0.00 | 0.00 | 61 | 1004.3 |
| 20260509181129 | 69 | 173 | 5.0 | 15.0 | 0.00 | 0.00 | 0.00 | 61 | 1004.3 |
| 20260509180625 | 71 | 220 | 3.0 | 5.0 | 0.00 | 0.00 | 0.00 | 56 | 1004.5 |
| 20260509180122 | 70 | 207 | 1.0 | 5.0 | 0.00 | 0.00 | 0.00 | 64 | 1004.2 |
| 20260509175617 | 69 | 116 | 6.0 | 12.0 | 0.00 | 0.00 | 0.00 | 58 | 1004.3 |